User: anonymous   Login
Location: Unspecified
(0.0000°N, 0.0000°E)
Time: 00:40:23
(UTC+00:00)
Language:

N. Korean satellite - Orbit

View from above orbital plane
View from above orbital plane
View from above satellite
View from above satellite

Ground track
Ground track

The orbit data is extracted from the following two-line orbital elements,

1 39026U 12072A   18020.60062147 +.00001243 +00000-0 +49514-4 0  9996
2 39026 097.2148 036.0017 0041169 125.3119 235.1981 15.26293314283146
Epoch (UTC): 20 January 2018 14:24:53
Eccentricity: 0.0041169
inclination: 97.2148°
perigee height: 458 km
apogee height: 515 km
right ascension of ascending node: 36.0017°
argument of perigee: 125.3119°
revolutions per day: 15.26293314
mean anomaly at epoch: 235.1981°
orbit number at epoch: 28314

The dashed part of the orbit path shows where the satellite is in the earth's shadow,  

DLR